Terminal Aerodrome Forecast
Issued by NWS Memphis, TN

Home | Current Version | Previous Version | Text Only | Print | Product List | Glossary On
Versions: 1 2 3 4 5 6 7 8 9 10 11 12 13 14 15 16 17 18 19 20 21 22 23 24 25 26 27 28 29 30 31 32 33 34 35 36 37 38 39 40 41 42 43 44 45 46 47 48 49 50
605
FTUS44 KMEG 170859 AAA
TAFMEM
TAF AMD
KMEM 170859Z 1709/1812 22006KT P6SM VCSH SCT012 OVC025
      TEMPO 1709/1711 BKN012
     FM171100 23007KT P6SM VCSH FEW010 BKN018
     FM171400 23008KT P6SM FEW020 BKN035
     FM171700 24009KT P6SM VCTS BKN045CB
     FM180100 21007KT P6SM FEW030 BKN250=

USA.gov is the U.S. government's official web portal to all federal, state and local government web resources and services.